Location: Alsip
(41.6689°N, 87.7387°W)
Time: 15:05:13
(UTC+00:00)

Cosmos 1110 Rocket - Pass Details

Date: 14 July 2020
Orbit: 752 x 782 km, 74.0° (Epoch: 13 August)

Event Time Altitude Azimuth Distance (km) Brightness Sun altitude
Rises 04:37:15 0° 345° (NNW) 3,260 8.7 -24.1°
Reaches altitude 10° 04:39:44 10° 351° (N) 2,333 7.5 -24.2°
Maximum altitude 04:44:52 49° 66° (ENE) 1,003 4.5 -24.6°
Enters shadow 04:45:40 45° 94° (E) 1,056 4.5 -24.6°
